Regional Weather Roundup
Issued by NWS

Home | Current Version | Previous Version | Text Only | Print | Product List | Glossary Off
Versions: 1 2 3 4 5 6 7 8 9 10 11 12 13 14 15 16 17 18 19 20 21 22 23 24 25 26 27 28 29 30 31 32 33 34 35 36 37 38 39 40 41 42 43 44 45 46 47 48 49 50

000
ASUS43 KLOT 010506
RWRIL

ILLINOIS REGIONAL WEATHER ROUNDUP
NATIONAL WEATHER SERVICE CHICAGO/ROMEOVILLE IL
1100 PM CST SAT JAN 31 2015

NOTE: "FAIR" INDICATES FEW OR NO CLOUDS BELOW 12,000 FEET WITH NO
SIGNIFICANT WEATHER AND/OR OBSTRUCTIONS TO VISIBILITY.

* THESE STATIONS ARE NOT UNDER NWS QUALITY CONTROL. THEY ALSO MAY NOT
  REPORT WEATHER SUCH AS PRECIPITATION OR FOG.

ILZ001-002-007-009-015-016-024-010600-
NORTHWEST ILLINOIS

CITY           SKY/WX    TMP DP  RH WIND       PRES   REMARKS
MOLINE         LGT SNOW  33  31  92 SE5       30.08F FOG     WCI  29
STERLING*        N/A    N/A N/A N/A MISG        N/A
SAVANNA*       LGT SNOW  33  32  97 E3        30.11S
$$

ILZ003-004-008-010-011-017-018-010600-
NORTH CENTRAL ILLINOIS

CITY           SKY/WX    TMP DP  RH WIND       PRES   REMARKS
ROCKFORD       LGT SNOW  31  28  89 E9        30.14F VSB 1   WCI  23
FREEPORT*      LGT SNOW  30  29  96 E8        30.14S VSB 1   WCI  22
ROCHELLE*      LGT SNOW  32  32 100 E3        30.12F
DE KALB*       LGT SNOW  31  31  99 E6        30.13F VSB 1   WCI  25
PERU*          LGT SNOW  33  33  99 S5        30.13S VSB 1   WCI  28
$$

ILZ005-006-012>014-019>023-010600-
NORTHEAST ILLINOIS

CITY           SKY/WX    TMP DP  RH WIND       PRES   REMARKS
CHICAGO-OHARE  LGT SNOW  31  29  92 E8        30.15S VSB 3/4 WCI  23
CHICAGO-MIDWAY LGT SNOW  33  31  92 E6        30.16S VSB 3/4 WCI  28
AURORA         LGT SNOW  33  30  88 E5        30.14S VSB 3/4 WCI  29
LANSING*       LGT SNOW  32  32  99 CALM      30.16S
JOLIET*        SNOW      32  32  99 CALM      30.15S VSB 1/2
WAUKEGAN       LGT SNOW  30  29  96 NE9       30.16S VSB 1   WCI  22
DUPAGE AIRPORT LGT SNOW  31  30  96 NE8       30.14S VSB 1   WCI  23
KANKAKEE*      LGT SNOW  32  32  99 S7        30.17S WCI  26
WHEELING       LGT SNOW  30  28  92 E3        30.18S VSB 3/4
MORRIS*        LGT SNOW  32  32 100 CALM      30.14S VSB 3/4
ROMEOVILLE*    LGT SNOW  32  32 100 CALM      30.14F VSB 3/4
NORTHERLY ISL    N/A     31  30  96 NE3         N/A
$$

LMZ740>746-010600-
SOUTHERN LAKE MICHIGAN

STATION/POSITION SKY/WX   TEMP    WIND        PRES    VSBY  WAVE
                          AIR SEA DIR/SP/G                  HT/PER
                          (F)     (DEG/KT/KT) (MB)    (MI)  (FT/S)
WAUKEGAN HARBOR            30      70/  9/ 11   N/A
HARRISON CRIB              31      60/ 10/ 11   N/A
BURNHAM HARBOR             31      50/  3/  5   N/A
CALUMET HARBOR             31      60/  6/  7   N/A
MICHIGAN CITY              30      30/  9/ 10   N/A
$$

ILZ025>027-034>036-040-047-049-050-058-095>099-010600-
WEST-CENTRAL ILLINOIS

CITY           SKY/WX    TMP DP  RH WIND       PRES   REMARKS
QUINCY         LGT SNOW  33  31  92 SE10      30.03F FOG     WCI  25
GALESBURG*     LGT SNOW  32  32 100 SE6       30.08F WCI  27
MACOMB*        LGT SNOW  32  32 100 SE10      30.10F WCI  24
JACKSONVILLE*  LGT RAIN  36  34  92 E7        30.08F WCI  31
PITTSFIELD*    DRIZZLE   35  34  94 E6        30.04F WCI  30
$$

ILZ028>032-037-038-041>044-048-051>054-059>061-010600-
CENTRAL ILLINOIS

CITY           SKY/WX    TMP DP  RH WIND       PRES   REMARKS
PONTIAC        LGT SNOW  33  33 100 SE5       30.15F WCI  29
BLOOMINGTON    LGT SNOW  33  33 100 S12       30.13F FOG     WCI  24
DECATUR        MIX PCPN  34  32  92 SE6       30.15F FOG     WCI  29
PEORIA         LGT SNOW  34  32  92 S7        30.12F FOG     WCI  28
LACON*         LGT SNOW  32  32  98 S5        30.12F WCI  28
LINCOLN*       LGT RAIN  35  33  94 S7        30.14F WCI  29
SPRINGFIELD    LGT RAIN  35  33  92 SE8       30.11F FOG     WCI  29
TAYLORVILLE    CLOUDY    34  32  93 E6        30.11F WCI  29
$$

ILZ033-039-045-046-055>057-062-063-010600-
EAST-CENTRAL ILLINOIS

CITY           SKY/WX    TMP DP  RH WIND       PRES   REMARKS
CHAMPAIGN      LGT SNOW  33  31  92 SE6       30.16S FOG     WCI  28
DANVILLE*      LGT SNOW  32  32 100 S3        30.15F
RANTOUL*       LGT SNOW  34  33  97 S6        30.16S WCI  29
MATTOON        CLOUDY    33  30  88 SE6       30.15F WCI  28
PARIS*         CLOUDY    33  33  99 CALM      30.18F FOG
$$

ILZ079-100>102-010600-
SOUTHWEST ILLINOIS

CITY           SKY/WX    TMP DP  RH WIND       PRES   REMARKS
ALTON          CLOUDY    37  27  68 E6        30.09F WCI  32
BELLEVILLE     CLOUDY    38  29  70 E10       30.08F WCI  30
CAHOKIA*       CLOUDY    39  28  64 SE9       30.07F WCI  33
SPARTA*        CLOUDY    37  27  65 SE12      30.09F WCI  30
$$

ILZ064>066-069>071-074>076-080>082-084>086-088>090-092>094-010600-
SOUTH-CENTRAL ILLINOIS

CITY           SKY/WX    TMP DP  RH WIND       PRES   REMARKS
CARBONDALE     CLOUDY    37  25  61 SE6       30.10F WCI  32
CAIRO*         CLOUDY    40  31  69 CALM      30.11F
EFFINGHAM*     CLOUDY    35  27  73 E8        30.14F WCI  29
MARION         CLOUDY    41  25  52 E7        30.11F
MT. VERNON     CLOUDY    37  25  60 E5        30.13F WCI  34
CENTRALIA*     CLOUDY    37  27  66 E7        30.10F WCI  32
SALEM*         CLOUDY    39  29  65 E5        30.13F
METROPOLIS*    CLOUDY    40  29  63 CALM      30.11F
$$

ILZ067-068-072-073-078-083-087-091-010600-
SOUTHEAST ILLINOIS

CITY           SKY/WX    TMP DP  RH WIND       PRES   REMARKS
LAWRENCEVILLE  CLOUDY    37  28  70 SE9       30.19F WCI  30
FLORA*         CLOUDY    36  29  74 E5        30.15F WCI  32
FAIRFIELD*     CLOUDY    38  28  69 SE6       30.14F WCI  33
HARRISBURG*    CLOUDY    38  29  70 E8        30.14F WCI  32
ROBINSON*      CLOUDY    34  31  91 E6        30.18F WCI  29
CARMI*         CLOUDY    39  32  74 SE3       30.16R
$$

ABBREVIATIONS USED IN REMARKS
   TC - TEMPERATURE IN CELSIUS
  WCI - WIND CHILL INDEX
   HX - HEAT INDEX
  VSB - VISIBILITY
$$




USA.gov is the U.S. government's official web portal to all federal, state and local government web resources and services.